• In Hungary
  • List of Countries
  • For 7 days
  • Water Temperature
  • Satellite Maps
  • Weather Map
  • News
  • Weather Widgets
  • user-avatar
    Login

    Hourly Weather Ząbki

    Today, 24 September, Monday

    Time Temperature Precipitation Wind Pressure Humidity
    00:00 +10°C° 0.7 mm 3 mps 742 mmHg 92%
    01:00 +11°C° 0.7 mm 3 mps 742 mmHg 92%
    02:00 +9°C° 1.2 mm 5 mps 743 mmHg 90%
    03:00 +9°C° 1.2 mm 7 mps 743 mmHg 88%
    04:00 +7°C° 1.2 mm 9 mps 744 mmHg 86%
    05:00 +7°C° 0.2 mm 8 mps 745 mmHg 85%
    06:00 +7°C° 0.2 mm 8 mps 747 mmHg 84%
    07:00 +9°C° 0.2 mm 8 mps 748 mmHg 84%
    08:00 +10°C° 0.1 mm 9 mps 748 mmHg 78%
    09:00 +10°C° 0.1 mm 9 mps 749 mmHg 72%
    10:00 +11°C° 0.1 mm 9 mps 750 mmHg 67%
    11:00 +12°C° 0.3 mm 10 mps 750 mmHg 64%
    12:00 +12°C° 0.3 mm 10 mps 751 mmHg 61%
    13:00 +12°C° 0.3 mm 10 mps 751 mmHg 59%
    14:00 +11°C° 0.3 mm 9 mps 752 mmHg 60%
    15:00 +11°C° 0.3 mm 9 mps 752 mmHg 61%
    16:00 +10°C° 0.3 mm 8 mps 752 mmHg 63%
    17:00 +10°C° 0.1 mm 8 mps 753 mmHg 67%
    18:00 +9°C° 0.1 mm 7 mps 753 mmHg 70%
    19:00 +8°C° 0.1 mm 6 mps 754 mmHg 74%
    20:00 +8°C° 0 mm 6 mps 755 mmHg 75%
    21:00 +7°C° 0 mm 6 mps 756 mmHg 76%
    22:00 +7°C° 0 mm 6 mps 756 mmHg 77%
    23:00 +7°C° 0 mm 5 mps 757 mmHg 77%

    Tomorrow, 25 September, Tuesday

    Time Temperature Precipitation Wind Pressure Humidity
    00:00 +6°C° 0 mm 5 mps 758 mmHg 78%
    01:00 +6°C° 0 mm 5 mps 759 mmHg 79%
    02:00 +5°C° 0 mm 5 mps 759 mmHg 79%
    03:00 +5°C° 0 mm 5 mps 760 mmHg 80%
    04:00 +5°C° 0 mm 5 mps 760 mmHg 80%
    05:00 +5°C° 0 mm 5 mps 761 mmHg 77%
    06:00 +6°C° 0 mm 5 mps 761 mmHg 74%
    07:00 +5°C° 0 mm 6 mps 762 mmHg 71%
    08:00 +7°C° 0.1 mm 6 mps 762 mmHg 65%
    09:00 +9°C° 0.1 mm 7 mps 763 mmHg 58%
    10:00 +10°C° 0.1 mm 7 mps 763 mmHg 52%
    11:00 +10°C° 0.1 mm 7 mps 764 mmHg 50%
    12:00 +11°C° 0.1 mm 7 mps 764 mmHg 48%
    13:00 +11°C° 0.1 mm 7 mps 764 mmHg 46%
    14:00 +11°C° 0 mm 7 mps 764 mmHg 46%
    15:00 +11°C° 0 mm 6 mps 765 mmHg 46%
    16:00 +11°C° 0 mm 6 mps 765 mmHg 46%
    17:00 +9°C° 0 mm 5 mps 765 mmHg 51%
    18:00 +8°C° 0 mm 4 mps 766 mmHg 56%
    19:00 +8°C° 0 mm 3 mps 766 mmHg 61%
    20:00 +7°C° 0 mm 3 mps 767 mmHg 63%
    21:00 +6°C° 0 mm 2 mps 767 mmHg 66%
    22:00 +6°C° 0 mm 2 mps 768 mmHg 69%
    23:00 +5°C° 0 mm 2 mps 768 mmHg 70%

    Day after tomorrow, 26 September, Wednesday

    Time Temperature Precipitation Wind Pressure Humidity
    00:00 +5°C° 0 mm 2 mps 768 mmHg 71%
    01:00 +5°C° 0 mm 2 mps 768 mmHg 72%
    02:00 +5°C° 0 mm 2 mps 768 mmHg 72%
    03:00 +4°C° 0 mm 2 mps 768 mmHg 72%
    04:00 +4°C° 0 mm 2 mps 768 mmHg 72%
    05:00 +4°C° 0 mm 3 mps 768 mmHg 69%
    06:00 +5°C° 0 mm 3 mps 768 mmHg 66%
    07:00 +5°C° 0 mm 4 mps 768 mmHg 63%
    08:00 +7°C° 0 mm 4 mps 767 mmHg 59%
    09:00 +9°C° 0 mm 5 mps 767 mmHg 55%
    10:00 +11°C° 0 mm 6 mps 767 mmHg 50%
    11:00 +11°C° 0 mm 6 mps 766 mmHg 49%
    12:00 +13°C° 0 mm 6 mps 765 mmHg 48%
    13:00 +12°C° 0 mm 7 mps 765 mmHg 47%
    14:00 +13°C° 0 mm 6 mps 764 mmHg 47%
    15:00 +13°C° 0 mm 6 mps 763 mmHg 47%
    16:00 +13°C° 0 mm 6 mps 763 mmHg 47%
    17:00 +11°C° 0 mm 6 mps 762 mmHg 48%
    18:00 +11°C° 0 mm 6 mps 762 mmHg 49%
    19:00 +10°C° 0 mm 5 mps 762 mmHg 50%
    20:00 +10°C° 0.1 mm 6 mps 761 mmHg 54%
    21:00 +10°C° 0.1 mm 6 mps 761 mmHg 58%
    22:00 +10°C° 0.1 mm 6 mps 761 mmHg 62%
    23:00 +10°C° 0.1 mm 6 mps 760 mmHg 59%

    27 September, Thursday

    Time Temperature Precipitation Wind Pressure Humidity
    00:00 +10°C° 0.1 mm 6 mps 760 mmHg 57%
    01:00 +11°C° 0.1 mm 6 mps 759 mmHg 55%
    02:00 +11°C° 0 mm 6 mps 759 mmHg 57%
    03:00 +10°C° 0 mm 7 mps 759 mmHg 60%
    04:00 +10°C° 0 mm 7 mps 758 mmHg 63%
    05:00 +11°C° 0 mm 7 mps 758 mmHg 63%
    06:00 +11°C° 0 mm 7 mps 758 mmHg 63%
    07:00 +11°C° 0 mm 7 mps 758 mmHg 64%
    08:00 +12°C° 0 mm 7 mps 758 mmHg 63%
    09:00 +14°C° 0 mm 7 mps 758 mmHg 63%
    10:00 +16°C° 0 mm 7 mps 758 mmHg 63%
    11:00 +17°C° 0 mm 7 mps 758 mmHg 62%
    12:00 +18°C° 0 mm 7 mps 758 mmHg 61%
    13:00 +20°C° 0 mm 7 mps 758 mmHg 59%
    14:00 +20°C° 0 mm 6 mps 757 mmHg 62%
    15:00 +20°C° 0 mm 6 mps 757 mmHg 65%
    16:00 +19°C° 0 mm 5 mps 757 mmHg 67%
    17:00 +19°C° 0 mm 4 mps 757 mmHg 70%
    18:00 +18°C° 0 mm 4 mps 757 mmHg 73%
    19:00 +17°C° 0 mm 4 mps 756 mmHg 76%
    20:00 +15°C° 0 mm 4 mps 756 mmHg 78%
    21:00 +15°C° 0 mm 4 mps 756 mmHg 81%
    22:00 +14°C° 0 mm 4 mps 756 mmHg 83%
    23:00 +14°C° 0 mm 5 mps 755 mmHg 82%

    28 September, Friday

    Time Temperature Precipitation Wind Pressure Humidity
    00:00 +14°C° 0 mm 5 mps 755 mmHg 82%
    01:00 +14°C° 0 mm 5 mps 754 mmHg 81%
    02:00 +14°C° 0 mm 5 mps 754 mmHg 79%
    03:00 +14°C° 0 mm 6 mps 754 mmHg 76%
    04:00 +15°C° 0 mm 6 mps 753 mmHg 74%
    05:00 +15°C° 0.1 mm 6 mps 754 mmHg 75%
    06:00 +15°C° 0.1 mm 6 mps 754 mmHg 76%
    07:00 +15°C° 0.1 mm 6 mps 754 mmHg 77%
    08:00 +14°C° 0.2 mm 5 mps 755 mmHg 75%
    09:00 +14°C° 0.2 mm 5 mps 755 mmHg 72%
    10:00 +14°C° 0.2 mm 5 mps 756 mmHg 69%
    11:00 +15°C° 0 mm 4 mps 756 mmHg 63%
    12:00 +15°C° 0 mm 4 mps 756 mmHg 57%
    13:00 +17°C° 0 mm 4 mps 756 mmHg 50%
    14:00 +17°C° 0 mm 3 mps 757 mmHg 50%
    15:00 +17°C° 0 mm 3 mps 757 mmHg 49%
    16:00 +16°C° 0 mm 3 mps 757 mmHg 49%
    17:00 +14°C° 0 mm 3 mps 758 mmHg 52%
    18:00 +13°C° 0 mm 3 mps 758 mmHg 55%
    19:00 +11°C° 0 mm 3 mps 759 mmHg 59%
    20:00 +11°C° 0 mm 3 mps 759 mmHg 61%
    21:00 +10°C° 0 mm 3 mps 760 mmHg 63%
    22:00 +10°C° 0 mm 3 mps 760 mmHg 65%
    23:00 +9°C° 0 mm 3 mps 760 mmHg 67%

    29 September, Saturday

    Time Temperature Precipitation Wind Pressure Humidity
    00:00 +9°C° 0 mm 2 mps 761 mmHg 70%
    01:00 +8°C° 0 mm 2 mps 761 mmHg 72%
    02:00 +8°C° 0 mm 2 mps 761 mmHg 75%
    03:00 +7°C° 0 mm 2 mps 762 mmHg 78%
    04:00 +6°C° 0 mm 2 mps 762 mmHg 81%
    05:00 +7°C° 0 mm 2 mps 763 mmHg 80%
    06:00 +7°C° 0 mm 2 mps 763 mmHg 78%
    07:00 +7°C° 0 mm 2 mps 763 mmHg 77%
    08:00 +9°C° 0 mm 2 mps 764 mmHg 68%
    09:00 +10°C° 0 mm 2 mps 764 mmHg 59%
    10:00 +13°C° 0 mm 2 mps 764 mmHg 50%
    11:00 +14°C° 0 mm 2 mps 764 mmHg 46%
    12:00 +14°C° 0 mm 2 mps 764 mmHg 41%
    13:00 +15°C° 0 mm 2 mps 764 mmHg 37%
    14:00 +15°C° 0 mm 2 mps 763 mmHg 38%
    15:00 +15°C° 0 mm 2 mps 763 mmHg 39%
    16:00 +14°C° 0 mm 2 mps 763 mmHg 40%
    17:00 +13°C° 0 mm 2 mps 763 mmHg 43%
    18:00 +10°C° 0 mm 2 mps 763 mmHg 46%
    19:00 +9°C° 0 mm 2 mps 764 mmHg 50%
    20:00 +8°C° 0 mm 2 mps 764 mmHg 52%
    21:00 +8°C° 0 mm 2 mps 764 mmHg 53%
    22:00 +7°C° 0 mm 2 mps 764 mmHg 55%
    23:00 +7°C° 0 mm 2 mps 764 mmHg 58%
    Show more

    3.3.7123123